GW5447 Weather Reports


time (UTC)temp
C
wind
direction
speed
KPH
gust
KPH
rain 1hr
cm
rain 24hr
cm
rain mn
cm
humidity
%
barometer
mb
20260503032901 2 171 0.0 0.0 0.00 0.00 0.00 89 1017.8
20260503032400 2 171 0.0 0.0 0.00 0.00 0.00 88 1017.7
20260503031857 2 171 0.0 0.0 0.00 0.00 0.00 88 1017.9
20260503031355 2 171 0.0 0.0 0.00 0.00 0.00 88 1017.8
20260503030851 2 171 0.0 0.0 0.00 0.00 0.00 88 1017.9
20260503030347 2 171 0.0 0.0 0.00 0.00 0.00 87 1018.0
20260503025844 2 171 0.0 0.0 0.00 0.00 0.00 88 1017.9
20260503025342 2 171 0.0 0.0 0.00 0.00 0.00 87 1017.9
20260503024839 2 171 0.0 0.0 0.00 0.00 0.00 86 1017.9
20260503024335 2 171 0.0 0.0 0.00 0.00 0.00 85 1017.9
20260503023832 2 171 0.0 0.0 0.00 0.00 0.00 85 1018.0
20260503023329 2 171 0.0 0.0 0.00 0.00 0.00 84 1018.1
20260503022826 2 171 0.0 0.0 0.00 0.00 0.00 82 1018.1
20260503022320 3 172 0.0 0.0 0.00 0.00 0.00 81 1017.9
20260503021817 3 172 0.0 0.0 0.00 0.00 0.00 80 1018.1
20260503021314 3 172 0.0 0.0 0.00 0.00 0.00 78 1018.0
20260503020811 3 172 0.0 0.0 0.00 0.00 0.00 78 1017.8
20260503020309 3 172 0.0 0.0 0.00 0.00 0.00 77 1017.8
20260503015805 4 172 0.0 0.0 0.00 0.00 0.00 76 1017.8
20260503015305 4 172 0.0 0.0 0.00 0.00 0.00 75 1017.8
20260503014757 5 172 0.0 0.0 0.00 0.00 0.00 75 1018.0
20260503014255 5 172 0.0 0.0 0.00 0.00 0.00 73 1017.7
20260503013752 5 172 0.0 0.0 0.00 0.00 0.00 73 1017.7
20260503013250 5 172 0.0 0.0 0.00 0.00 0.00 72 1017.9
20260503012747 5 172 0.0 0.0 0.00 0.00 0.00 71 1017.7
20260503012244 5 172 0.0 0.0 0.00 0.00 0.00 70 1017.6
20260503011741 6 172 0.0 0.0 0.00 0.00 0.00 69 1017.5
20260503011238 6 172 0.0 0.0 0.00 0.00 0.00 68 1017.5
20260503010734 6 172 0.0 0.0 0.00 0.00 0.00 68 1017.6
20260503010231 6 172 0.0 0.0 0.00 0.00 0.00 68 1017.5
20260503005729 6 172 0.0 0.0 0.00 0.00 0.00 66 1017.4
20260503005226 6 172 0.0 0.0 0.00 0.00 0.00 68 1017.3
20260503004722 6 172 0.0 0.0 0.00 0.00 0.00 64 1017.4
20260503004220 7 172 0.0 0.0 0.00 0.00 0.00 64 1017.5
20260503003717 7 171 0.0 0.0 0.00 0.00 0.00 64 1017.4
20260503003214 7 171 0.0 0.0 0.00 0.00 0.00 59 1017.4
20260503002711 7 159 0.0 0.0 0.00 0.00 0.00 56 1017.3
20260503002208 7 332 0.0 1.6 0.00 0.00 0.00 55 1017.4
20260503001704 7 176 0.0 0.0 0.00 0.00 0.00 56 1017.3
20260503001200 7 153 0.0 0.0 0.00 0.00 0.00 54 1017.3
20260503000658 7 28 0.0 1.6 0.00 0.00 0.00 54 1017.3
20260503000155 7 44 0.0 0.0 0.00 0.00 0.00 53 1017.1
20260502235652 7 289 0.0 0.0 0.00 0.00 0.00 53 1017.3
20260502235150 7 217 0.0 0.0 0.00 0.00 0.00 51 1017.3
20260502234645 7 332 0.0 1.6 0.00 0.00 0.00 51 1017.1
20260502234137 7 28 3.2 4.8 0.00 0.00 0.00 49 1017.1
20260502233632 7 289 3.2 4.8 0.00 0.00 0.00 49 1017.0
20260502233129 7 346 0.0 1.6 0.00 0.00 0.00 49 1017.1
20260502232625 8 316 0.0 6.4 0.00 0.00 0.00 48 1017.1
20260502232123 8 232 1.6 1.6 0.00 0.00 0.00 49 1017.0
20260502231619 8 258 1.6 3.2 0.00 0.00 0.00 48 1017.0
20260502231117 8 266 0.0 3.2 0.00 0.00 0.00 49 1017.1
20260502230615 8 286 3.2 11.3 0.00 0.00 0.00 47 1017.2
20260502230115 8 300 3.2 6.4 0.00 0.00 0.00 47 1017.0
20260502225614 8 297 1.6 6.4 0.00 0.00 0.00 47 1017.0
20260502225112 8 313 1.6 4.8 0.00 0.00 0.00 47 1017.1
20260502224608 8 117 1.6 4.8 0.00 0.00 0.00 46 1017.0
20260502224105 8 286 3.2 9.7 0.00 0.00 0.00 45 1017.2
20260502223603 8 17 1.6 3.2 0.00 0.00 0.00 46 1017.1
20260502223101 8 335 4.8 4.8 0.00 0.00 0.00 45 1017.0
20260502222558 8 337 1.6 4.8 0.00 0.00 0.00 45 1017.0
20260502222054 8 150 0.0 4.8 0.00 0.00 0.00 45 1017.1
20260502221550 8 48 4.8 6.4 0.00 0.00 0.00 45 1017.0
20260502221048 8 320 3.2 4.8 0.00 0.00 0.00 45 1017.1
20260502220543 8 77 1.6 4.8 0.00 0.00 0.00 46 1017.0
20260502220040 8 347 0.0 3.2 0.00 0.00 0.00 45 1016.9
20260502215537 8 348 1.6 4.8 0.00 0.00 0.00 47 1017.0
20260502215034 8 310 1.6 3.2 0.00 0.00 0.00 49 1016.9
20260502214531 8 326 0.0 0.0 0.00 0.00 0.00 49 1016.8
20260502214029 8 254 1.6 4.8 0.00 0.00 0.00 52 1017.0
20260502213525 8 294 1.6 3.2 0.00 0.00 0.00 51 1016.9
20260502213023 8 241 1.6 3.2 0.00 0.00 0.00 49 1016.9
20260502212522 9 286 4.8 6.4 0.00 0.00 0.00 46 1016.6
20260502212019 9 336 1.6 4.8 0.00 0.00 0.00 45 1016.6
20260502211514 9 323 4.8 6.4 0.00 0.00 0.00 41 1016.7
20260502211012 9 272 3.2 11.3 0.00 0.00 0.00 41 1016.7
20260502210509 9 37 1.6 11.3 0.00 0.00 0.00 44 1016.6
20260502210006 9 259 0.0 4.8 0.00 0.00 0.00 45 1016.7
20260502205502 9 253 4.8 11.3 0.00 0.00 0.00 44 1016.7
20260502204959 10 335 3.2 4.8 0.00 0.00 0.00 43 1016.6
20260502204456 9 257 1.6 3.2 0.00 0.00 0.00 44 1016.7
20260502203954 10 15 1.6 9.7 0.00 0.00 0.00 43 1016.6
20260502203451 10 334 6.4 9.7 0.00 0.00 0.00 45 1016.7
20260502202947 10 218 1.6 4.8 0.00 0.00 0.00 45 1016.7
20260502202444 10 332 1.6 4.8 0.00 0.00 0.00 44 1016.7
20260502201942 9 100 3.2 4.8 0.00 0.00 0.00 44 1016.6
20260502201438 9 346 1.6 9.7 0.00 0.00 0.00 46 1016.8
20260502200935 9 36 4.8 11.3 0.00 0.00 0.00 45 1016.7
20260502200430 9 307 4.8 11.3 0.00 0.00 0.00 45 1016.9
20260502195928 10 291 3.2 9.7 0.00 0.00 0.00 44 1016.9
20260502195425 10 64 1.6 6.4 0.00 0.00 0.00 43 1016.8
20260502194922 9 79 3.2 9.7 0.00 0.00 0.00 45 1016.9
20260502194419 9 291 1.6 6.4 0.00 0.00 0.00 46 1017.1
20260502193914 9 277 3.2 4.8 0.00 0.00 0.00 47 1017.0
20260502193412 9 11 6.4 9.7 0.00 0.00 0.00 46 1017.0
20260502192907 10 306 3.2 9.7 0.00 0.00 0.00 43 1016.9
20260502192404 10 249 1.6 4.8 0.00 0.00 0.00 43 1017.0
20260502191902 10 281 4.8 14.5 0.00 0.00 0.00 45 1017.2
20260502191359 10 294 6.4 9.7 0.00 0.00 0.00 44 1017.1
20260502190856 10 278 3.2 9.7 0.00 0.00 0.00 44 1017.2
20260502190354 10 6 0.0 12.9 0.00 0.00 0.00 43 1017.1
20260502185850 10 241 4.8 9.7 0.00 0.00 0.00 42 1017.2
20260502185345 10 111 6.4 11.3 0.00 0.00 0.00 44 1017.3
20260502184843 10 227 3.2 11.3 0.00 0.00 0.00 45 1017.3
20260502184338 10 66 3.2 6.4 0.00 0.00 0.00 47 1017.3
20260502183835 10 245 6.4 11.3 0.00 0.00 0.00 47 1017.3
20260502183331 10 266 4.8 11.3 0.00 0.00 0.00 46 1017.2
20260502182826 10 267 4.8 9.7 0.00 0.00 0.00 47 1017.1
20260502182322 9 318 0.0 3.2 0.00 0.00 0.00 44 1017.3
20260502181819 10 273 3.2 4.8 0.00 0.00 0.00 46 1017.3
20260502181317 10 249 3.2 9.7 0.00 0.00 0.00 44 1017.2
20260502180815 10 17 6.4 12.9 0.00 0.00 0.00 47 1017.2
20260502180312 10 342 3.2 9.7 0.00 0.00 0.00 43 1017.2
20260502170231 8 226 6.4 12.9 0.00 0.00 0.00 45 1017.7
20260502164218 8 316 3.2 6.4 0.00 0.00 0.00 51 1017.4
20260502163713 8 300 4.8 11.3 0.00 0.00 0.00 49 1017.6
20260502163210 8 284 3.2 4.8 0.00 0.00 0.00 49 1017.5
20260502162708 8 302 1.6 6.4 0.00 0.00 0.00 49 1017.7
20260502162204 8 232 1.6 14.5 0.00 0.00 0.00 48 1017.8
20260502161701 8 64 3.2 11.3 0.00 0.00 0.00 51 1017.8
20260502161158 10 263 4.8 9.7 0.00 0.00 0.00 48 1017.9
20260502160656 10 2 3.2 9.7 0.00 0.00 0.00 47 1017.9
20260502160155 10 216 0.0 9.7 0.00 0.00 0.00 49 1017.9
20260502152103 7 308 0.0 1.6 0.00 0.00 0.00 56 1017.9
20260502151600 7 228 4.8 9.7 0.00 0.00 0.00 54 1017.8
20260502151057 7 332 3.2 3.2 0.00 0.00 0.00 57 1017.6
20260502150554 7 5 1.6 11.3 0.00 0.00 0.00 55 1017.9
20260502130439 3 227 1.6 6.4 0.00 0.00 0.00 80 1017.4
20260502123422 2 274 1.6 6.4 0.00 0.00 0.00 99 1017.6
20260502122919 1 87 3.2 4.8 0.00 0.00 0.00 99 1017.4
20260502122415 1 300 3.2 4.8 0.00 0.00 0.00 99 1017.3
20260502121914 1 262 0.0 1.6 0.00 0.00 0.00 99 1017.3
20260502121410 1 344 3.2 3.2 0.00 0.00 0.00 99 1017.2
20260502120908 1 209 0.0 0.0 0.00 0.00 0.00 99 1017.1
20260502120404 1 52 0.0 0.0 0.00 0.00 0.00 99 1017.4
20260502115901 1 210 0.0 0.0 0.00 0.00 0.00 99 1017.3
20260502115358 0 206 0.0 0.0 0.00 0.00 0.00 99 1017.1
20260502114854 0 206 0.0 0.0 0.00 0.00 0.00 99 1017.2
20260502114352 0 206 0.0 0.0 0.00 0.00 0.00 99 1017.0
20260502113848 0 206 0.0 0.0 0.00 0.00 0.00 99 1017.2
20260502113346 1 206 0.0 0.0 0.00 0.00 0.00 99 1017.2
20260502112844 0 205 0.0 0.0 0.00 0.00 0.00 99 1017.0
20260502112341 0 205 0.0 0.0 0.00 0.00 0.00 99 1017.0
20260502111834 0 205 0.0 0.0 0.00 0.00 0.00 99 1017.0
20260502111331 0 205 0.0 0.0 0.00 0.00 0.00 99 1017.0
20260502110828 0 206 0.0 0.0 0.00 0.00 0.00 99 1016.9
20260502110326 0 206 0.0 0.0 0.00 0.00 0.00 99 1017.0
20260502105823 0 206 0.0 0.0 0.00 0.00 0.00 99 1017.0
20260502105320 0 206 0.0 0.0 0.00 0.00 0.00 99 1016.8
20260502104817 0 206 0.0 0.0 0.00 0.00 0.00 99 1016.9
20260502104315 -1 206 0.0 0.0 0.00 0.00 0.00 99 1016.9
20260502103812 -1 206 0.0 0.0 0.00 0.00 0.00 99 1017.0
20260502103309 -1 206 0.0 0.0 0.00 0.00 0.00 99 1016.8
20260502102807 0 206 0.0 0.0 0.00 0.00 0.00 99 1016.8
20260502102306 0 206 0.0 0.0 0.00 0.00 0.00 99 1016.8
20260502101801 0 206 0.0 0.0 0.00 0.00 0.00 99 1017.1
20260502101258 0 206 0.0 0.0 0.00 0.00 0.00 99 1016.9
20260502100756 0 206 0.0 0.0 0.00 0.00 0.00 99 1016.9
20260502100255 0 206 0.0 0.0 0.00 0.00 0.00 99 1016.9
20260502091229 0 206 0.0 0.0 0.00 0.00 0.00 99 1016.9
20260502090726 0 206 0.0 0.0 0.00 0.00 0.00 99 1016.8
20260502090223 0 206 0.0 0.0 0.00 0.00 0.00 99 1016.5
20260502071124 0 207 0.0 0.0 0.00 0.00 0.00 99 1016.7
20260502070622 0 207 0.0 0.0 0.00 0.00 0.00 99 1016.7
20260502070120 0 207 0.0 0.0 0.00 0.00 0.00 99 1016.7
20260502065618 0 207 0.0 0.0 0.00 0.30 0.30 99 1016.7
20260502065115 0 207 0.0 0.0 0.00 0.30 0.30 99 1016.8
20260502064614 0 207 0.0 0.0 0.00 0.30 0.30 99 1016.8
20260502064111 0 207 0.0 0.0 0.00 0.30 0.30 98 1016.9
20260502063608 1 207 0.0 0.0 0.00 0.30 0.30 98 1016.9
20260502063106 1 207 0.0 0.0 0.00 0.30 0.30 98 1016.9
20260502062603 1 207 0.0 0.0 0.00 0.30 0.30 98 1017.0
20260502062101 1 207 0.0 0.0 0.00 0.30 0.30 98 1016.9
20260502061559 1 207 0.0 0.0 0.00 0.30 0.30 98 1016.9
20260502061056 1 208 0.0 0.0 0.00 0.30 0.30 98 1017.0
20260502060555 1 208 0.0 0.0 0.00 0.30 0.30 98 1017.1
20260502060053 1 203 0.0 0.0 0.00 0.30 0.30 98 1016.9
20260502055550 1 203 0.0 0.0 0.00 0.30 0.30 98 1017.1
20260502055049 1 203 0.0 0.0 0.00 0.30 0.30 98 1017.0
20260502054547 1 203 0.0 0.0 0.00 0.30 0.30 98 1017.2
20260502054044 1 203 0.0 0.0 0.00 0.30 0.30 98 1017.1
20260502053541 2 203 0.0 0.0 0.00 0.30 0.30 98 1017.2
20260502053039 2 203 0.0 0.0 0.00 0.30 0.30 98 1017.3
20260502052537 2 211 0.0 0.0 0.00 0.30 0.30 98 1017.3
20260502052035 2 211 0.0 0.0 0.00 0.30 0.30 98 1017.1
20260502051532 2 226 0.0 0.0 0.00 0.30 0.30 98 1017.1
20260502051030 2 227 0.0 0.0 0.00 0.30 0.30 98 1017.1
20260502050526 2 229 0.0 0.0 0.00 0.30 0.30 98 1017.1
20260502050023 2 192 0.0 0.0 0.00 0.30 0.30 98 1017.1
20260502045520 2 192 0.0 0.0 0.00 0.30 0.30 98 1017.2
20260502045017 2 192 0.0 0.0 0.00 0.30 0.30 98 1017.0
20260502044513 2 192 0.0 0.0 0.00 0.30 0.30 98 1016.9
20260502044010 2 192 0.0 0.0 0.00 0.30 0.30 97 1017.0
20260502043508 2 192 0.0 0.0 0.00 0.30 0.30 98 1017.0
20260502043004 2 192 0.0 0.0 0.00 0.30 0.30 97 1017.0
20260502042459 2 192 0.0 0.0 0.00 0.30 0.30 97 1017.1
20260502041956 2 192 0.0 0.0 0.00 0.30 0.30 97 1016.9
20260502041454 2 192 0.0 0.0 0.00 0.30 0.30 97 1017.0
20260502040951 2 192 0.0 0.0 0.00 0.30 0.30 97 1017.1
20260502040447 2 192 0.0 0.0 0.00 0.30 0.30 97 1017.0
20260502035943 2 192 0.0 0.0 0.00 0.30 0.30 97 1017.0
20260502035440 3 191 0.0 0.0 0.00 0.30 0.30 97 1016.9
20260502034938 3 191 0.0 0.0 0.00 0.30 0.30 97 1016.8
20260502034437 3 192 0.0 0.0 0.00 0.30 0.30 97 1017.1
20260502033935 3 173 0.0 0.0 0.00 0.30 0.30 97 1017.0
20260502033432 3 173 0.0 0.0 0.00 0.30 0.30 97 1016.8